www.pogodaiklimat.ru

Погода и климат >> Архив погоды >> Россия >> Якутия >> Чурапча


ПОГОДА в Чурапче

  • Прогноз погоды в Чурапче
  • Монитор погоды в Чурапче

АРХИВ ПОГОДЫ в Чурапче

Время (UTC), дата Ветер
(напр.,м/с)
 
Видим.   Явления Облачность Т
(С)
Тd
(С)
f
(%)
Тe
(С)
Тes
(С)
Комфортность P
(гПа)
Po
(гПа)
Тmin
(С)
Tmax
(С)
R
(мм)
R24
(мм)
S
(см)
06 10.07 ЮЗ 2 20 км ливневой дождь {гроза} 9/9 600 м
[Cb cap]
+24.4 +19.8 76 +30 +31 очень
душно
1002.2 981.0
09 10.07 С 1 10 км слаб. дождь {гроза} 9/9 600 м
[Cb cap]
+18.8 +17.5 92 +21 +21 комфорт 1004.3 982.6
12 10.07 штиль 0 20 км {гроза, ливн. осадки} 8/8 600 м
[Sc]
+18.6 +18.0 96 +20 +20 1004.9 983.2 +27.4 4
15 10.07 штиль 0 20 км 9/9 600 м
[Sc]
+17.5 +16.4 93 +17 +17 1005.5 983.7
18 10.07 штиль 0 20 км 9/9 600 м
[Sc]
+17.2 +16.1 93 +17 +17 1006.6 984.7
21 10.07 С 1 20 км 8/8 600 м
[Sc]
+18.4 +17.8 96 +20 +21 1007.1 985.3
00 11.07 З 1 20 км 9/9 600 м
[Sc diur, vesp]
+20.6 +18.5 88 +26 +27 душно 1007.3 985.7 +16.7
03 11.07 СЗ 2 20 км 9/9 600 м
[Cb cap]
+24.7 +16.9 62 +28 +30 душно 1006.9 985.6
06 11.07 В 2 20 км 9/9 600 м
[Cb cap]
+27.1 +16.9 54 +31 +32 душно 1006.8 985.6
09 11.07 В 1 20 км {дождь} 9/8 600 м
[Cb cap Ci fib]
+26.2 +17.0 57 +30 +31 душно 1006.3 985.1
12 11.07 ЮЗ 1 20 км 9/3 600 м
[Sc Ci fib]
+23.7 +18.2 71 +28 +28 душно 1007.3 985.9 +27.6 0.3
15 11.07 штиль 0 20 км 6/3 600 м
[Sc Ci fib]
+19.0 +17.6 92 +20 +20 1008.1 986.3
18 11.07 штиль 0 20 км 8/3 600 м
[Sc Ci fib]
+16.2 +15.3 94 1008.7 986.7
21 11.07 штиль 0 20 км 6/0
[Ci fib]
+19.3 +17.9 92 +21 +24 комфорт 1009.3 987.5
00 12.07 С 2 20 км 8/0
[Ci fib]
+25.3 +17.2 61 +29 +36 душно 1008.7 987.4 +16.0
03 12.07 СВ 2 20 км 9/3 1000 м
[Cu med, cong Ci sp]
+28.5 +15.1 44 +31 +39 душно 1008.0 986.9
06 12.07 СВ 2 20 км 3/3 600 м
[Cu med, cong Ci fib]
+30.3 +10.8 30 +30 +37 жарко 1006.3 985.3
09 12.07 В 2 20 км 8/3 600 м
[Cu med, cong Ci fib]
+30.3 +12.9 34 +31 +33 жарко 1005.2 984.3
12 12.07 штиль 0 20 км 6/0
[Ci fib]
+25.7 +16.6 57 +29 +29 душно 1005.7 984.5 +30.8
15 12.07 штиль 0 20 км 6/0
[Ci fib]
+17.2 +14.6 85 +17 +17 1006.9 985.0
18 12.07 Ю 1 20 км 4/0
[Ci fib]
+15.1 +14.2 94 +16 +16 1006.9 984.8
21 12.07 Ю 1 20 км 6/3 600 м
[Sc Ci fib]
+17.7 +16.2 91 +19 +20 1006.7 984.9
00 13.07 Ю 1 20 км 9/0
[Ac cast Ci fib]
+25.6 +17.7 62 +30 +36 душно 1006.6 985.3 +15.1
03 13.07 СЗ 2 20 км 9/3 600 м
[Cu med, cong Ac trans Ci fib]
+30.2 +13.7 36 +32 +37 жарко 1005.5 984.6
06 13.07 СЗ 3 20 км гроза, ливневой дождь 9/8 600 м
[Cb cap Ac trans]
+27.8 +15.2 46 +30 +32 жарко 1004.8 983.7
09 13.07 Ю 1 20 км {гроза, дождь} 4/4 600 м
[Cu med, cong]
+30.9 +13.8 35 +32 +34 жарко 1003.4 982.5
12 13.07 штиль 0 20 км {гроза, дождь} 3/3 1000 м
[Sc diur, vesp Ac trans]
+24.6 +16.6 61 +28 +28 душно 1003.9 982.6 +32.1 0.0
15 13.07 ЮЗ 2
{10}
20 км гроза без осадков 6/6 600 м
[Cb cap]
+21.8 +13.2 58 +24 +24 комфорт 1005.1 983.6
18 13.07 В 4 20 км {гроза} 9/9 600 м
[Cb cap]
+19.1 +14.1 73 +20 +20 1005.8 984.1
21 13.07 Ю 2 20 км в посл. час гроза 9/9 600 м
[Cb cap]
+20.2 +16.3 78 +24 +24 комфорт 1005.4 983.8
00 14.07 В 1 20 км {гроза, дождь} 6/6 600 м
[Sc]
+22.4 +17.4 73 +27 +31 душно 1005.2 983.7 +19.0 1
03 14.07 В 3 20 км 4/3 600 м
[Cu hum Ci fib]
+28.0 +14.9 45 +31 +38 душно 1004.7 983.6
06 14.07 В 1 20 км 4/4 600 м
[Sc]
+29.4 +12.5 35 +30 +37 жарко 1003.9 982.9
09 14.07 В 3 20 км 8/4 600 м
[Cu med, cong Ci fib]
+29.2 +13.6 38 +31 +32 жарко 1003.6 982.6
12 14.07 Ю 1 20 км 9/3 600 м
[Sc diur, vesp Ci fib]
+24.8 +14.6 53 +27 +27 жарко 1004.7 983.4 +29.8
15 14.07 Ю 1 20 км 9/5 600 м
[Cb cap Ac trans]
+18.9 +13.5 71 +21 +21 комфорт 1005.6 983.8
18 14.07 Ю 1 20 км в посл. час гроза 9/6 600 м
[Cb cap Ac trans]
+16.8 +14.5 86 +18 +18 1005.5 983.6
21 14.07 Ю 1 20 км 8/0
[Ac trans Ci fib]
+18.8 +14.9 78 +21 +23 комфорт 1006.0 984.2
00 15.07 ЮЗ 1 20 км 9/0
[Ci fib]
+25.6 +16.6 58 +29 +37 душно 1006.0 984.7 +16.6
03 15.07 ЮЗ 1 20 км 9/0
[Ci fib]
+28.2 +14.7 44 +31 +43 душно 1004.8 983.6
06 15.07 З 3
{10}
20 км 9/8 600 м
[Cb cap Ci fib]
+31.0 +13.9 35 +32 +34 жарко 1003.3 982.5
09 15.07 СЗ 4
{10}
20 км {гроза} 6/6 600 м
[Cu med, cong]
+30.0 +13.4 36 +31 +32 жарко 1003.4 982.5
12 15.07 СВ 1 20 км {гроза} 6/0
[Ac trans Ci fib]
+23.8 +17.8 69 +28 +28 душно 1004.8 983.5 +31.6
15 15.07 С 1 20 км 4/0
[Ac trans]
+18.8 +15.4 81 +21 +21 комфорт 1005.8 984.1
18 15.07 З 1 20 км 4/0
[Ac trans]
+16.4 +14.1 86 +17 +17 1006.9 984.9
21 15.07 СЗ 1 20 км 6/6 600 м
[Sc]
+17.4 +14.8 85 +18 +19 1005.8 983.9
00 16.07 СЗ 1 20 км 9/9 600 м
[Sc]
+20.8 +17.8 83 +26 +27 душно 1006.6 985.0 +15.3
03 16.07 В 1 20 км 9/8 600 м
[Sc Ci fib]
+26.2 +16.4 55 +30 +32 душно 1005.5 984.3
06 16.07 З 3 20 км гроза без осадков 9/8 600 м
[Cb cap Ci fib]
+27.6 +14.6 45 +30 +31 жарко 1004.0 982.9
09 16.07 В 2 20 км гроза без осадков 9/8 600 м
[Cb cap Ci fib]
+24.3 +13.0 49 +26 +27 жарко 1004.2 982.9
12 16.07 З 1 20 км {гроза} 9/5 600 м
[Cb cap Ci fib]
+21.8 +13.2 58 +24 +24 комфорт 1004.6 983.1 +28.6
15 16.07 З 2 20 км 3/3 600 м
[Sc]
+16.0 +12.0 77 +16 +16 1005.3 983.3
18 16.07 штиль 0 20 км 3/3 600 м
[Sc]
+10.6 +7.3 80 +10 +10 1005.7 983.3
21 16.07 ЮЗ 1 20 км 4/0
[Ci fib]
+13.4 +7.6 68 +14 +16 1005.7 983.5
00 17.07 ЮЗ 2 20 км ясно +17.3 +5.4 45 +18 +26 1005.3 983.4 +9.7

 

Местоположение метеостанции Чурапча (Якутия, Россия): широта 62.03 долгота 132.60 высота над уровнем моря 186 м.

В архиве по умолчанию представлена погода в Чурапче за последнюю неделю. Архивные данные за месяц целиком и за предыдущие месяцы, начиная с января 2011 года, Вы можете получить, выбрав интересующий диапазон дат из раскрывающегося списка и нажав кнопку "Ввод!".


*Определитесь, кто Вы:
робот инопланетянин человек

Внимание! Время в таблицах - всемирное. Для получения местного времени необходимо прибавить поправку, которая равна 9 ч.

Смотрите также архив погоды в соседних городах и на ближайших метеорологических станциях:

Погода в Ытык-Кюёле (Якутия, Россия) (60 км)
Погода в Крест-Хальджае (Якутия, Россия) (128 км)
Погода в Амге (Якутия, Россия) (131 км)
Погода в Верхоянском Перевозе (Якутия, Россия) (147 км)
Погода в Охотском Перевозе (Якутия, Россия) (153 км)
Погода в Якутске (Якутия, Россия) (157 км)
Погода в Намцах (Якутия, Россия) (173 км)
Погода в Покровске (Якутия, Россия) (194 км)
Погода в Усть-Мае (Якутия, Россия) (210 км)
Погода в Тегюльте (Якутия, Россия) (222 км)

Пояснения к столбцам:

Ветер - указаны скорость ветра в м/с - средняя за 10 мин, порывы в срок и между сроками (в фигурных скобках) и направление, откуда дует ветер: С - северный, СВ - северо-восточный, В - восточный, ЮВ - юго-восточный, Ю - южный, ЮЗ - юго-западный, З - западный, СЗ - северо-западный.
Видимость - горизонтальная дальность видимости в метрах или километрах. При видимости от 1 до 10 км при отсутствии осадков обычно наблюдается дымка, при ухудшении видимости до 1 км и менее - туман. В сухую погоду видимость может ухудшаться дымом, пылью или мглою.
Явления - указаны атмосферные явления, наблюдавшиеся в срок или в последний час перед сроком; фигурными скобками обозначены явления, наблюдавшиеся между сроками (за 1-3 часа до срока); квадратными скобками обозначены град или гололедные отложения с указанием их диаметра в мм.
Облачность - указаны через наклонную черту общая и нижняя облачность в баллах и высота нижней границы облаков в метрах; квадратными скобками обозначены формы облаков: Ci - перистые, Cs - перисто-слоистые, Cc - перисто-кучевые, Ac - высококучевые, As - высокослоистые, Sc - слоисто-кучевые, Ns - слоисто-дождевые, Cu - кучевые, Cb - кучево-дождевые. Подробнее классификацию облаков см. в Атласе облаков (PDF).
T - Температура воздуха - температура, измеренная на высоте 2 м над землей.
Td - Температура точки росы - температура, при понижении до которой содержащийся в воздухе водяной пар достигнет насыщения.
f - Относительная влажность воздуха - влажноcть воздуха, измеренная на высоте 2 м над землей.
Te - Эффективная температура - температура, которую ощущает одетый по сезону человек в тени. Характеристика душности погоды. При расчете учитывается влияние влажности воздуха и скорости ветра на теплоощущения человека.
Tes - Эффективная температура на солнце - температура, которую ощущает человек, с поправкой на солнечный нагрев. Характеристика знойности погоды. Зависит от высоты солнца над горизонтом, облачности и скорости ветра. Ночью, в пасмурную погоду, а также при ветре 12 м/с и более поправка равна нулю.
P - Атмосферное давление - приведенное к уровню моря атмосферное давление.
Po - Атмосферное давление - измеренное на уровне метеостанции атмосферное давление.
Tmin - Минимальная температура - минимум температуры воздуха на высоте 2 м над землей.
Tmax - Максимальная температура - максимум температуры воздуха на высоте 2 м над землей.
R - Количество осадков - Количество выпавших осадков за период времени, мм. При наведении курсора мыши на число - период времени, за который выпало указанное количество осадков.
R24 - Количество осадков - Количество выпавших осадков за 24 часа, мм.
S - Снежный покров - Высота снежного покрова, см. При наведении курсора мыши на число - состояние снежного покрова и степень покрытия местности в баллах.